sat.trackr.live / text

‹ back to catalog

STARLINK-36864

NORAD 68045 · 2026-041F

PAYLOAD ACTIVE UNKNOWN

§ Identity

Operator
Country
US
Launch date
2026-03-02
Launch site
AFETR
Launch vehicle
Mass (kg)
RCS (m²)

Purposes: comms

External: N2YO · Heavens-Above · Gunter

§ Orbital elements

Epoch: 2026-09-19T15:01:57.258624Z

Period
93.85 min
Inclination
53.1588°
Eccentricity
0.0001353
Mean motion
15.34393513 rev/d
Perigee alt
461.8 km
Apogee alt
463.6 km
Semi-major
6,840.9 km
B*
6.9430e-4
RAAN
223.8998°
Arg perigee
87.7015°
Mean anomaly
272.4143°
Rev number
3,115

§ Raw data

STARLINK-368641 68045U 26041F   26262.62635716  .00023149  00000+0  69430-3 0  99932 68045  53.1588 223.8998 0001353  87.7015 272.4143 15.34393513 31156

JSON: /api/v1/satellites/68045 · /tle

For live sub-satellite position, see the globe view (requires WebGL).

§ Visibility from observer

Set your observer location to see the next 7 days of passes ≥ 10°. The values pass through the URL so the page stays shareable.

No JS? Fill the form by hand. The geolocation button needs JavaScript.